| time (UTC) | temp F | wind direction | speed MPH | gust MPH | rain 1hr in | rain 24hr in | rain mn in | humidity % | barometer mb |
| 20260906202931 | 59 | 38 | 0.0 | 7.0 | 0.00 | 0.11 | 0.04 | 71 | 1014.7 |
| 20260906201942 | 59 | 38 | 0.0 | 9.0 | 0.00 | 0.11 | 0.04 | 69 | 1014.7 |
| 20260906200946 | 59 | 38 | 4.0 | 9.0 | 0.00 | 0.11 | 0.04 | 67 | 1014.6 |
| 20260906194942 | 60 | 38 | 4.0 | 10.0 | 0.00 | 0.11 | 0.04 | 66 | 1014.5 |
| 20260906193948 | 60 | 38 | 5.0 | 10.0 | 0.00 | 0.11 | 0.04 | 66 | 1014.6 |
| 20260906192956 | 59 | 38 | 5.0 | 10.0 | 0.00 | 0.11 | 0.04 | 68 | 1014.7 |
| 20260906191939 | 59 | 38 | 6.0 | 9.0 | 0.00 | 0.11 | 0.04 | 68 | 1014.6 |
| 20260906190941 | 59 | 38 | 2.0 | 11.0 | 0.00 | 0.11 | 0.04 | 69 | 1014.7 |
| 20260906185946 | 59 | 38 | 6.0 | 9.0 | 0.00 | 0.11 | 0.04 | 70 | 1014.7 |
| 20260906184933 | 59 | 38 | 5.0 | 11.0 | 0.00 | 0.11 | 0.04 | 70 | 1014.7 |
| 20260906183936 | 59 | 38 | 3.0 | 8.0 | 0.01 | 0.11 | 0.04 | 72 | 1014.8 |
| 20260906182937 | 59 | 38 | 6.0 | 10.0 | 0.01 | 0.11 | 0.04 | 70 | 1014.8 |
| 20260906181944 | 60 | 38 | 6.0 | 10.0 | 0.01 | 0.11 | 0.04 | 70 | 1014.7 |
| 20260906180936 | 60 | 38 | 4.0 | 10.0 | 0.01 | 0.11 | 0.04 | 67 | 1014.7 |
| 20260906175938 | 60 | 38 | 3.0 | 13.0 | 0.01 | 0.11 | 0.04 | 67 | 1014.6 |
| 20260906174941 | 60 | 38 | 1.0 | 12.0 | 0.01 | 0.11 | 0.04 | 66 | 1014.7 |
| 20260906173948 | 59 | 38 | 0.0 | 8.0 | 0.00 | 0.10 | 0.03 | 66 | 1014.7 |
| 20260906173011 | 59 | 38 | 1.0 | 9.0 | 0.00 | 0.10 | 0.03 | 69 | 1014.7 |
| 20260906171937 | 59 | 38 | 0.0 | 8.0 | 0.00 | 0.10 | 0.03 | 69 | 1014.8 |
| 20260906165933 | 59 | 38 | 1.0 | 9.0 | 0.00 | 0.10 | 0.03 | 71 | 1015.0 |
| 20260906164935 | 58 | 38 | 0.0 | 0.0 | 0.00 | 0.10 | 0.03 | 71 | 1015.1 |
| 20260906163958 | 58 | 38 | 0.0 | 0.0 | 0.00 | 0.10 | 0.03 | 73 | 1015.2 |
| 20260906162926 | 57 | 38 | 0.0 | 6.0 | 0.00 | 0.10 | 0.03 | 77 | 1015.4 |
| 20260906161006 | 55 | 38 | 2.0 | 8.0 | 0.00 | 0.10 | 0.03 | 82 | 1015.4 |
| 20260906155948 | 53 | 38 | 3.0 | 9.0 | 0.00 | 0.10 | 0.03 | 82 | 1015.5 |
| 20260906154930 | 53 | 38 | 0.0 | 0.0 | 0.00 | 0.10 | 0.03 | 82 | 1015.8 |
| 20260906153941 | 53 | 38 | 3.0 | 11.0 | 0.00 | 0.10 | 0.03 | 83 | 1015.9 |
| 20260906152945 | 53 | 38 | 8.0 | 14.0 | 0.00 | 0.10 | 0.03 | 82 | 1015.9 |
| 20260906151949 | 53 | 38 | 7.0 | 13.0 | 0.00 | 0.10 | 0.03 | 83 | 1015.7 |
| 20260906150931 | 53 | 38 | 8.0 | 15.0 | 0.00 | 0.10 | 0.03 | 82 | 1015.4 |
| 20260906145937 | 53 | 38 | 12.0 | 21.0 | 0.00 | 0.10 | 0.03 | 82 | 1015.5 |
| 20260906144940 | 53 | 37 | 11.0 | 18.0 | 0.00 | 0.10 | 0.03 | 84 | 1015.1 |
| 20260906143943 | 52 | 36 | 9.0 | 13.0 | 0.00 | 0.10 | 0.03 | 91 | 1014.7 |
| 20260906142946 | 50 | 41 | 0.0 | 0.0 | 0.00 | 0.10 | 0.03 | 93 | 1014.4 |
| 20260906141934 | 50 | 42 | 0.0 | 0.0 | 0.00 | 0.10 | 0.03 | 92 | 1014.0 |
| 20260906140939 | 50 | 42 | 0.0 | 0.0 | 0.00 | 0.10 | 0.03 | 92 | 1014.1 |
| 20260906135944 | 49 | 41 | 0.0 | 0.0 | 0.00 | 0.10 | 0.03 | 92 | 1013.9 |
| 20260906134947 | 49 | 42 | 0.0 | 0.0 | 0.00 | 0.10 | 0.03 | 91 | 1013.8 |
| 20260906133934 | 49 | 42 | 0.0 | 0.0 | 0.00 | 0.10 | 0.03 | 91 | 1013.5 |
| 20260906132939 | 49 | 42 | 0.0 | 0.0 | 0.00 | 0.10 | 0.03 | 91 | 1013.5 |
| 20260906131942 | 49 | 41 | 0.0 | 0.0 | 0.00 | 0.10 | 0.03 | 91 | 1013.4 |
| 20260906130928 | 49 | 42 | 0.0 | 0.0 | 0.00 | 0.10 | 0.03 | 91 | 1013.3 |
| 20260906125940 | 49 | 42 | 0.0 | 0.0 | 0.00 | 0.10 | 0.03 | 91 | 1013.5 |
| 20260906124942 | 49 | 42 | 0.0 | 0.0 | 0.00 | 0.10 | 0.03 | 91 | 1013.6 |
| 20260906123948 | 49 | 42 | 0.0 | 0.0 | 0.00 | 0.10 | 0.03 | 91 | 1013.8 |
| 20260906122930 | 49 | 42 | 0.0 | 0.0 | 0.00 | 0.10 | 0.03 | 91 | 1013.7 |
| 20260906122001 | 49 | 42 | 0.0 | 0.0 | 0.00 | 0.10 | 0.03 | 91 | 1013.9 |
| 20260906121003 | 49 | 41 | 0.0 | 0.0 | 0.00 | 0.10 | 0.03 | 91 | 1013.9 |
| 20260906115945 | 49 | 41 | 0.0 | 0.0 | 0.00 | 0.10 | 0.03 | 91 | 1013.9 |
| 20260906115007 | 49 | 42 | 0.0 | 0.0 | 0.00 | 0.10 | 0.03 | 91 | 1014.1 |
| 20260906113947 | 49 | 41 | 0.0 | 0.0 | 0.00 | 0.10 | 0.03 | 91 | 1014.0 |
| 20260906112934 | 49 | 42 | 0.0 | 0.0 | 0.00 | 0.10 | 0.03 | 91 | 1013.9 |
| 20260906111940 | 49 | 42 | 0.0 | 0.0 | 0.00 | 0.10 | 0.03 | 91 | 1013.8 |
| 20260906110945 | 49 | 41 | 0.0 | 0.0 | 0.00 | 0.10 | 0.03 | 90 | 1013.9 |
| 20260906105947 | 49 | 42 | 0.0 | 0.0 | 0.00 | 0.10 | 0.03 | 90 | 1013.9 |
| 20260906104934 | 49 | 41 | 0.0 | 0.0 | 0.00 | 0.10 | 0.03 | 90 | 1013.9 |
| 20260906103936 | 49 | 41 | 0.0 | 0.0 | 0.00 | 0.10 | 0.03 | 90 | 1014.0 |
| 20260906102943 | 49 | 42 | 0.0 | 0.0 | 0.00 | 0.10 | 0.03 | 90 | 1014.0 |
| 20260906102004 | 49 | 42 | 0.0 | 0.0 | 0.00 | 0.10 | 0.03 | 90 | 1014.0 |
| 20260906100930 | 49 | 42 | 0.0 | 0.0 | 0.00 | 0.10 | 0.03 | 90 | 1013.8 |
| 20260906095933 | 49 | 42 | 0.0 | 0.0 | 0.00 | 0.10 | 0.03 | 89 | 1013.8 |
| 20260906094941 | 49 | 42 | 0.0 | 0.0 | 0.00 | 0.10 | 0.03 | 89 | 1013.7 |
| 20260906093944 | 50 | 42 | 0.0 | 0.0 | 0.00 | 0.10 | 0.03 | 89 | 1013.7 |
| 20260906092932 | 50 | 42 | 0.0 | 0.0 | 0.00 | 0.10 | 0.03 | 89 | 1013.7 |
| 20260906091955 | 50 | 41 | 0.0 | 0.0 | 0.01 | 0.10 | 0.03 | 89 | 1013.6 |
| 20260906090938 | 50 | 42 | 0.0 | 0.0 | 0.01 | 0.10 | 0.03 | 89 | 1013.7 |
| 20260906085940 | 51 | 42 | 0.0 | 0.0 | 0.01 | 0.10 | 0.03 | 89 | 1013.8 |
| 20260906084944 | 51 | 42 | 0.0 | 0.0 | 0.01 | 0.10 | 0.03 | 89 | 1013.9 |
| 20260906082945 | 51 | 42 | 0.0 | 0.0 | 0.02 | 0.10 | 0.03 | 89 | 1014.0 |
| 20260906081947 | 52 | 42 | 0.0 | 0.0 | 0.01 | 0.09 | 0.02 | 89 | 1014.2 |
| 20260906080931 | 52 | 41 | 0.0 | 0.0 | 0.01 | 0.09 | 0.02 | 89 | 1014.2 |
| 20260906075932 | 52 | 41 | 0.0 | 0.0 | 0.02 | 0.09 | 0.02 | 89 | 1014.3 |
| 20260906074944 | 52 | 42 | 0.0 | 0.0 | 0.02 | 0.09 | 0.02 | 89 | 1014.5 |
| 20260906073947 | 52 | 41 | 0.0 | 0.0 | 0.02 | 0.09 | 0.02 | 88 | 1014.6 |
| 20260906072931 | 52 | 41 | 0.0 | 0.0 | 0.02 | 0.08 | 0.01 | 88 | 1014.7 |
| 20260906071955 | 52 | 41 | 0.0 | 0.0 | 0.02 | 0.08 | 0.01 | 88 | 1014.7 |
| 20260906070941 | 53 | 42 | 0.0 | 0.0 | 0.03 | 0.08 | 0.01 | 87 | 1014.7 |
| 20260906065943 | 53 | 42 | 0.0 | 0.0 | 0.02 | 0.07 | 0.00 | 87 | 1014.8 |
| 20260906064946 | 53 | 42 | 0.0 | 0.0 | 0.02 | 0.07 | 0.00 | 87 | 1014.8 |
| 20260906063933 | 54 | 42 | 0.0 | 0.0 | 0.03 | 0.07 | 0.07 | 87 | 1014.7 |
| 20260906062938 | 54 | 42 | 0.0 | 0.0 | 0.02 | 0.06 | 0.06 | 86 | 1014.7 |
| 20260906062004 | 55 | 42 | 0.0 | 0.0 | 0.02 | 0.06 | 0.06 | 86 | 1014.7 |
| 20260906060947 | 55 | 42 | 0.0 | 0.0 | 0.02 | 0.05 | 0.05 | 87 | 1014.7 |
| 20260906055930 | 56 | 41 | 0.0 | 0.0 | 0.02 | 0.05 | 0.05 | 87 | 1014.8 |
| 20260906054937 | 56 | 42 | 0.0 | 0.0 | 0.02 | 0.05 | 0.05 | 87 | 1014.8 |
| 20260906053943 | 57 | 41 | 0.0 | 0.0 | 0.01 | 0.04 | 0.04 | 87 | 1014.9 |
| 20260906052946 | 57 | 41 | 0.0 | 0.0 | 0.01 | 0.04 | 0.04 | 87 | 1014.9 |
| 20260906051949 | 57 | 42 | 0.0 | 0.0 | 0.02 | 0.04 | 0.04 | 86 | 1015.0 |
| 20260906050936 | 58 | 41 | 0.0 | 0.0 | 0.01 | 0.03 | 0.03 | 85 | 1015.7 |
| 20260906044932 | 58 | 42 | 0.0 | 0.0 | 0.01 | 0.03 | 0.03 | 83 | 1015.6 |
| 20260906043935 | 58 | 42 | 0.0 | 0.0 | 0.01 | 0.03 | 0.03 | 83 | 1015.5 |
| 20260906042958 | 58 | 41 | 0.0 | 0.0 | 0.01 | 0.03 | 0.03 | 83 | 1015.3 |
| 20260906041940 | 58 | 42 | 0.0 | 0.0 | 0.00 | 0.02 | 0.02 | 83 | 1015.2 |
| 20260906040948 | 58 | 42 | 0.0 | 0.0 | 0.00 | 0.02 | 0.02 | 82 | 1015.6 |
| 20260906040010 | 58 | 42 | 0.0 | 0.0 | 0.00 | 0.02 | 0.02 | 81 | 1015.8 |
| 20260906034933 | 58 | 42 | 0.0 | 0.0 | 0.01 | 0.02 | 0.02 | 78 | 1015.5 |
| 20260906033935 | 59 | 41 | 0.0 | 0.0 | 0.01 | 0.02 | 0.02 | 77 | 1015.8 |
| 20260906032943 | 59 | 42 | 0.0 | 0.0 | 0.01 | 0.02 | 0.02 | 76 | 1015.5 |
| 20260906031946 | 59 | 42 | 0.0 | 0.0 | 0.01 | 0.02 | 0.02 | 72 | 1015.2 |
| 20260906030950 | 60 | 42 | 0.0 | 0.0 | 0.01 | 0.02 | 0.02 | 71 | 1015.1 |
| 20260906025931 | 61 | 42 | 0.0 | 0.0 | 0.01 | 0.02 | 0.02 | 69 | 1015.0 |
| 20260906024941 | 62 | 41 | 0.0 | 0.0 | 0.00 | 0.01 | 0.01 | 68 | 1015.1 |
| 20260906023944 | 63 | 42 | 0.0 | 0.0 | 0.00 | 0.01 | 0.01 | 63 | 1015.2 |
| 20260906023007 | 65 | 42 | 0.0 | 0.0 | 0.00 | 0.01 | 0.01 | 59 | 1014.9 |
| 20260906021948 | 67 | 41 | 0.0 | 0.0 | 0.00 | 0.01 | 0.01 | 57 | 1015.1 |
| 20260906020004 | 69 | 42 | 0.0 | 0.0 | 0.00 | 0.01 | 0.01 | 57 | 1015.1 |
| 20260906014950 | 69 | 42 | 0.0 | 0.0 | 0.00 | 0.01 | 0.01 | 55 | 1015.3 |
| 20260906013933 | 69 | 42 | 0.0 | 0.0 | 0.00 | 0.01 | 0.01 | 54 | 1015.2 |
| 20260906012935 | 69 | 42 | 0.0 | 0.0 | 0.00 | 0.01 | 0.01 | 53 | 1015.1 |
| 20260906011940 | 69 | 42 | 0.0 | 0.0 | 0.00 | 0.01 | 0.01 | 54 | 1015.1 |
| 20260906010929 | 68 | 42 | 0.0 | 2.0 | 0.00 | 0.01 | 0.01 | 56 | 1015.0 |
| 20260906005936 | 69 | 42 | 0.0 | 2.0 | 0.00 | 0.01 | 0.01 | 57 | 1015.0 |
| 20260906004939 | 69 | 42 | 0.0 | 3.0 | 0.00 | 0.01 | 0.01 | 55 | 1015.0 |
| 20260906003941 | 69 | 41 | 1.0 | 3.0 | 0.00 | 0.01 | 0.01 | 56 | 1015.0 |
| 20260906002949 | 70 | 42 | 1.0 | 4.0 | 0.00 | 0.01 | 0.01 | 56 | 1014.9 |
| 20260906001932 | 71 | 41 | 1.0 | 4.0 | 0.00 | 0.01 | 0.01 | 56 | 1014.9 |
| 20260906000935 | 71 | 41 | 0.0 | 0.0 | 0.00 | 0.01 | 0.01 | 54 | 1014.9 |
| 20260905235959 | 70 | 42 | 0.0 | 0.0 | 0.00 | 0.01 | 0.01 | 53 | 1014.9 |
| 20260905234945 | 69 | 42 | 0.0 | 1.0 | 0.00 | 0.01 | 0.01 | 55 | 1014.8 |
| 20260905233948 | 68 | 42 | 0.0 | 0.0 | 0.00 | 0.01 | 0.01 | 59 | 1014.9 |
| 20260905232931 | 67 | 42 | 0.0 | 2.0 | 0.00 | 0.01 | 0.01 | 61 | 1014.9 |
| 20260905230948 | 67 | 42 | 1.0 | 5.0 | 0.00 | 0.01 | 0.01 | 58 | 1014.9 |
| 20260905225935 | 67 | 42 | 0.0 | 0.0 | 0.00 | 0.01 | 0.01 | 59 | 1015.1 |
| 20260905224937 | 66 | 42 | 0.0 | 0.0 | 0.00 | 0.01 | 0.01 | 67 | 1015.4 |
| 20260905223939 | 64 | 42 | 0.0 | 0.0 | 0.00 | 0.01 | 0.01 | 72 | 1015.5 |
| 20260905222946 | 63 | 42 | 0.0 | 0.0 | 0.00 | 0.01 | 0.01 | 76 | 1015.7 |
| 20260905221931 | 61 | 42 | 0.0 | 0.0 | 0.00 | 0.01 | 0.01 | 78 | 1016.1 |
| 20260905220935 | 61 | 42 | 0.0 | 0.0 | 0.00 | 0.01 | 0.01 | 77 | 1016.1 |
| 20260905215941 | 61 | 42 | 0.0 | 0.0 | 0.00 | 0.01 | 0.01 | 77 | 1016.0 |
| 20260905214945 | 61 | 42 | 0.0 | 0.0 | 0.00 | 0.01 | 0.01 | 76 | 1016.0 |
| 20260905213952 | 61 | 42 | 0.0 | 0.0 | 0.00 | 0.01 | 0.01 | 75 | 1016.5 |
| 20260905212955 | 62 | 41 | 0.0 | 0.0 | 0.00 | 0.01 | 0.01 | 73 | 1016.7 |
| 20260905211957 | 62 | 41 | 0.0 | 1.0 | 0.00 | 0.01 | 0.01 | 70 | 1016.6 |
| 20260905210942 | 63 | 41 | 1.0 | 9.0 | 0.00 | 0.01 | 0.01 | 72 | 1016.1 |
| 20260905205949 | 63 | 42 | 0.0 | 0.0 | 0.01 | 0.01 | 0.01 | 72 | 1016.2 |
| 20260905204937 | 64 | 42 | 0.0 | 0.0 | 0.01 | 0.01 | 0.01 | 65 | 1016.6 |
| 20260905203940 | 64 | 41 | 0.0 | 0.0 | 0.01 | 0.01 | 0.01 | 62 | 1016.8 |